Погода в Финике

Турция     36°17′49″N   30°08′45″E
темп.,
°C
ветер,
м/с
пор.,
м/с
влажн.,
%
обл.,
%
осадки,
мм/ч
давл.,
гПа
погр.,
м
11 апреля, вс
вс1100:00+12с44400 0.0 1016238
03:00+11с44410 0.0 1015228
06:00+10ссз33380 0.0 1015225
09:00+12ссв11300 0.0 1017282
12:00+13ю44390 0.0 1018445
15:00+14ю44471 0.0 1018738
18:00+14юз43531 0.0 1018800
21:00+14з43543 0.0 1019382
12 апреля, пн
пн1200:00+14сз22520 0.0 1019228
03:00+13с22475 0.0 1019192
06:00+12ссв32481 0.0 1019205
09:00+13всв11450 0.0 1019306
12:00+14ю44531 0.0 1020487
15:00+15ююз334986 0.0 1019630
18:00+15юз3349100 0.0 1019595
21:00+15зсз225321 0.0 1020379
13 апреля, вт
вт1300:00+14с32575 0.0 1019190
03:00+14ссв22555 0.0 1019170
06:00+13ссв21575 0.0 1019178
09:00+14ссв11535 0.0 1020241
12:00+15ю33600 0.0 1020330
15:00+16юз55611 0.0 1019572
18:00+16юз44590 0.0 1019560
21:00+16зсз225946 0.0 1020359
14 апреля, ср
ср1400:00+15с21625 0.0 1020220
03:00+14ссв2266100 0.0 1019175
06:00+14ссв2165100 0.0 1019167
09:00+15всв1165100 0.0 1020243
12:00+16юв336978 0.0 1020417
15:00+16ю43685 0.0 1019532
18:00+16ююз33665 0.0 1018510
21:00+16юз01670 0.0 1018413
15 апреля, чт
чт1500:00+15ссв21716 0.0 1018195
03:00+14св3271100 0.0 1017167
06:00+14ссв2272100 0.0 1017177
09:00+15всв116931 0.0 1018221
12:00+16ююв33720 0.0 1018347
15:00+17ю44670 0.0 1017437
18:00+17ююз44650 0.0 1015492
21:00+16зсз11665 0.0 1016345